Location: Caltech
(34.1382°N, 118.1253°W)
Time: 14:26:13
(UTC-07:00)

Iridium 14 - Visible Passes

Search period start: 24 August 2016 00:00
Search period end: 03 September 2016 00:00
Orbit: 776 x 779 km, 86.4° (Epoch: 24 August)

Date Brightness Start Highest point End Pass type
(mag) Time Alt. Az. Time Alt. Az. Time Alt. Az.
24 Aug 8.8 01:45:23 13° NNE 01:45:23 13° NNE 01:45:58 10° NNE visible
26 Aug 8.8 02:19:16 12° N 02:19:16 12° N 02:19:33 10° N visible
27 Aug 9.0 01:45:58 11° N 01:45:58 11° N 01:46:10 10° N visible
